User: anonymous   Login
Location: Unspecified
(0.0000°N, 0.0000°E)
Time: 13:06:18
(UTC+00:00)
Language:

PAKSAT 1R - Orbit

View from above orbital plane
View from above orbital plane
View from above satellite
View from above satellite

Ground track
Ground track

The orbit data is extracted from the following two-line orbital elements,

1 37779U 11042A   15027.94033016  .00000137  00000-0  00000+0 0  7439
2 37779 000.0216 190.8469 0003535 086.6228 225.8741 01.00271620 12695
Epoch (UTC): 27 January 2015 22:34:04
Eccentricity: 0.0003535
inclination: 0.0216°
perigee height: 35771 km
apogee height: 35801 km
right ascension of ascending node: 190.8469°
argument of perigee: 86.6228°
revolutions per day: 1.00271620
mean anomaly at epoch: 225.8741°
orbit number at epoch: 1269

The dashed part of the orbit path shows where the satellite is in the earth's shadow,  

DLR